Location: Ferintosh
(52.7647°N, 112.9692°W)
Time: 19:33:55
(UTC+00:00)

Explorer 7 - Pass Details

Date: 27 May 2024
Orbit: 466 x 622 km, 50.3° (Epoch: 16 June)

Event Time Altitude Azimuth Distance (km) Brightness Sun altitude
Rises 04:05:45 0° 201° (SSW) 2,495 9.9 -3.8°
Reaches altitude 10° 04:08:38 10° 175° (S) 1,637 8.8 -4.1°
Maximum altitude 04:10:41 14° 142° (SE) 1,406 8.3 -4.3°
Drops below altitude 10° 04:12:45 10° 108° (ESE) 1,673 8.7 -4.5°
Sets 04:15:46 0° 83° (E) 2,590 9.9 -4.8°
